Tracking 19489 objects as of 22-Jan-2019
HD Live streaming from Space Station
objects crossing your sky now

FENGYUN 1C DEB

Track FENGYUN 1C DEB now!
10-day predictions


NORAD ID: 30333
Int'l Code: 1999-025AAU
Perigee: 514.5 km
Apogee: 724.0 km
Inclination: 98.9 °
Period: 96.9 minutes
Semi major axis: 6990 km
RCS: 0.026 m2 (small)
Launch date: May 10, 1999
Source: People's Republic of China (PRC)
Launch site: Taiyaun Space Center, China (TSC)

Note: This is SATELLITE DEBRIS
aabbcc
Your satellite tracking list
Your tracking list is empty




NASA's NSSDC Master Catalog

Two Line Element Set (TLE):
1 30333U 99025AAU 19021.75398125  .00000598  00000-0  64379-4 0  9995
2 30333  98.8780 118.2857 0149879   6.7706 143.4468 14.85478016643287
Source of the keplerian elements: AFSPC